CW5689 Weather Reports


Display with metric or nautical units.
time (UTC)temp
F
wind
direction
speed
MPH
gust
MPH
rain 1hr
in
rain 24hr
in
rain mn
in
humidity
%
barometer
mb
20260831232021 86 5 1.0 7.0 0.00 0.00 0.00 58 1011.0
20260831231541 86 1 1.0 7.0 0.00 0.00 0.00 57 1011.0
20260831231020 86 12 0.0 5.0 0.00 0.00 0.00 64 1011.1
20260831230518 86 20 1.0 5.0 0.00 0.00 0.00 59 1011.0
20260831230044 86 0 0.0 0.0 0.00 0.00 0.00 61 1011.0
20260831225517 86 0 0.0 3.0 0.00 0.00 0.00 59 1010.9
20260831225021 86 0 0.0 3.0 0.00 0.00 0.00 61 1010.9
20260831224546 86 0 0.0 0.0 0.00 0.00 0.00 61 1010.8
20260831224018 86 0 0.0 3.0 0.00 0.00 0.00 61 1010.8
20260831223520 86 0 0.0 4.0 0.00 0.00 0.00 62 1010.7
20260831223039 86 26 0.0 6.0 0.00 0.00 0.00 60 1010.7
20260831222520 86 5 2.0 6.0 0.00 0.00 0.00 61 1010.7
20260831222020 86 0 1.0 4.0 0.00 0.00 0.00 60 1010.6
20260831221541 86 0 0.0 2.0 0.00 0.00 0.00 61 1010.7
20260831221019 86 0 0.0 3.0 0.00 0.00 0.00 60 1010.7
20260831220518 86 19 0.0 7.0 0.00 0.00 0.00 57 1010.6
20260831220037 86 330 1.0 9.0 0.00 0.00 0.00 54 1010.7
20260831215521 86 355 3.0 9.0 0.00 0.00 0.00 57 1010.7
20260831215022 86 0 1.0 8.0 0.00 0.00 0.00 55 1010.6
20260831214600 86 21 1.0 4.0 0.00 0.00 0.00 57 1010.6
20260831214021 86 0 2.0 4.0 0.00 0.00 0.00 57 1010.6
20260831213518 86 21 0.0 6.0 0.00 0.00 0.00 54 1010.5
20260831213041 86 0 2.0 8.0 0.00 0.00 0.00 54 1010.4
20260831212519 86 326 2.0 9.0 0.00 0.00 0.00 54 1010.4
20260831212019 86 0 3.0 9.0 0.00 0.00 0.00 53 1010.3
20260831211540 86 294 2.0 7.0 0.00 0.00 0.00 59 1010.4
20260831211018 86 22 2.0 7.0 0.00 0.00 0.00 59 1010.3
20260831210522 86 36 3.0 7.0 0.00 0.00 0.00 58 1010.3
20260831210042 86 292 3.0 7.0 0.00 0.00 0.00 58 1010.4
20260831205521 86 286 2.0 9.0 0.00 0.00 0.00 61 1010.6
20260831205021 85 234 2.0 9.0 0.00 0.00 0.00 59 1010.5
20260831204538 85 280 4.0 9.0 0.00 0.00 0.00 59 1010.4
20260831204020 85 13 2.0 6.0 0.00 0.00 0.00 58 1010.4
20260831203518 85 7 1.0 10.0 0.00 0.00 0.00 65 1010.4
20260831203039 85 280 2.0 10.0 0.00 0.00 0.00 59 1010.4
20260831202523 85 232 0.0 7.0 0.00 0.00 0.00 62 1010.4
20260831202022 85 0 0.0 7.0 0.00 0.00 0.00 68 1010.4
20260831201540 85 0 1.0 7.0 0.00 0.00 0.00 69 1010.3
20260831201020 85 63 2.0 5.0 0.00 0.00 0.00 69 1010.4
20260831200519 85 45 2.0 8.0 0.00 0.00 0.00 71 1010.3
20260831200042 85 0 0.0 8.0 0.00 0.00 0.00 72 1010.3
20260831195521 85 342 2.0 7.0 0.00 0.00 0.00 69 1010.3
20260831195017 85 70 4.0 7.0 0.00 0.00 0.00 71 1010.3
20260831194545 86 75 2.0 5.0 0.00 0.00 0.00 70 1010.3
20260831194019 86 71 2.0 5.0 0.00 0.00 0.00 70 1010.4
20260831193519 86 66 1.0 6.0 0.00 0.00 0.00 73 1010.6
20260831193042 86 75 2.0 7.0 0.00 0.00 0.00 71 1010.3
20260831192520 87 74 3.0 7.0 0.00 0.00 0.00 70 1010.2
20260831192023 87 78 3.0 7.0 0.00 0.00 0.00 70 1010.2
20260831191537 87 66 1.0 5.0 0.00 0.00 0.00 70 1010.2
20260831191018 87 0 0.0 6.0 0.00 0.00 0.00 71 1010.2
20260831190520 88 65 2.0 6.0 0.00 0.00 0.00 70 1010.2
20260831190059 88 68 3.0 6.0 0.00 0.00 0.00 71 1010.1
20260831185521 88 76 2.0 4.0 0.00 0.00 0.00 72 1010.2
20260831185022 88 71 1.0 6.0 0.00 0.00 0.00 73 1010.1
20260831184544 88 72 3.0 6.0 0.00 0.00 0.00 73 1010.1
20260831184021 88 71 2.0 5.0 0.00 0.00 0.00 74 1010.1
20260831183524 88 69 2.0 5.0 0.00 0.00 0.00 74 1010.2
20260831183053 88 71 3.0 6.0 0.00 0.00 0.00 74 1010.2
20260831182522 87 67 3.0 6.0 0.00 0.00 0.00 76 1010.3
20260831182019 87 65 2.0 7.0 0.00 0.00 0.00 78 1010.3
20260831181538 87 68 4.0 7.0 0.00 0.00 0.00 75 1010.3
20260831181018 86 64 1.0 4.0 0.00 0.00 0.00 78 1010.4
20260831180517 86 0 0.0 4.0 0.00 0.00 0.00 77 1010.4
20260831180039 86 0 0.0 4.0 0.00 0.00 0.00 77 1010.3
20260831175526 86 66 1.0 4.0 0.00 0.00 0.00 78 1010.4
20260831175019 85 67 1.0 4.0 0.00 0.00 0.00 79 1010.4
20260831174539 85 72 1.0 3.0 0.00 0.00 0.00 78 1010.7
20260831174021 85 72 1.0 4.0 0.00 0.00 0.00 78 1010.6
20260831173520 85 72 1.0 4.0 0.00 0.00 0.00 77 1010.6
20260831173040 85 64 2.0 4.0 0.00 0.00 0.00 77 1010.7
20260831172517 85 59 2.0 4.0 0.00 0.00 0.00 77 1010.6
20260831172018 85 31 1.0 4.0 0.00 0.00 0.00 77 1010.6
20260831171542 85 292 1.0 8.0 0.00 0.00 0.00 78 1010.7
20260831171019 85 22 1.0 8.0 0.00 0.00 0.00 77 1010.7
20260831170519 85 305 2.0 8.0 0.00 0.00 0.00 77 1010.8
20260831170043 85 47 1.0 6.0 0.00 0.00 0.00 77 1010.6
20260831165521 84 360 2.0 7.0 0.00 0.00 0.00 78 1010.6
20260831165024 84 19 2.0 7.0 0.00 0.00 0.00 78 1010.5
20260831164546 84 24 0.0 5.0 0.00 0.00 0.00 81 1010.4
20260831164022 84 33 2.0 5.0 0.00 0.00 0.00 78 1010.4
20260831163521 84 30 2.0 4.0 0.00 0.00 0.00 78 1010.4
20260831163043 84 26 2.0 6.0 0.00 0.00 0.00 77 1010.4
20260831162519 84 342 1.0 6.0 0.00 0.00 0.00 77 1010.4
20260831162019 85 342 2.0 6.0 0.00 0.00 0.00 77 1010.3
20260831161542 85 257 1.0 6.0 0.00 0.00 0.00 77 1010.3
20260831161017 85 29 2.0 9.0 0.00 0.00 0.00 77 1010.3
20260831160524 85 355 1.0 9.0 0.00 0.00 0.00 76 1010.3
20260831160044 85 342 1.0 5.0 0.00 0.00 0.00 76 1010.3
20260831155524 85 0 1.0 5.0 0.00 0.00 0.00 75 1010.3
20260831155021 85 359 2.0 4.0 0.00 0.00 0.00 77 1010.3
20260831154618 85 0 0.0 4.0 0.00 0.00 0.00 76 1010.3
20260831154019 84 0 0.0 0.0 0.00 0.00 0.00 77 1010.1
20260831153520 84 0 0.0 0.0 0.00 0.00 0.00 78 1010.0
20260831153040 84 0 0.0 0.0 0.00 0.00 0.00 81 1009.9
20260831152521 83 0 0.0 3.0 0.00 0.00 0.00 79 1009.8
20260831152020 83 0 0.0 3.0 0.00 0.00 0.00 79 1009.8
20260831151539 83 0 1.0 6.0 0.00 0.00 0.00 81 1009.8
20260831151018 83 0 1.0 6.0 0.00 0.00 0.00 81 1009.7
20260831150526 82 195 1.0 6.0 0.00 0.00 0.00 80 1009.6
20260831150037 82 170 1.0 5.0 0.00 0.00 0.00 82 1009.5
20260831145521 82 112 1.0 4.0 0.00 0.00 0.00 81 1009.5
20260831145021 81 173 1.0 4.0 0.00 0.00 0.00 84 1009.4
20260831144542 81 0 0.0 4.0 0.00 0.00 0.00 83 1009.4
20260831144019 80 244 1.0 4.0 0.00 0.00 0.00 86 1009.4
20260831143522 80 255 0.0 4.0 0.00 0.00 0.00 83 1009.4
20260831143040 79 0 0.0 4.0 0.00 0.00 0.00 84 1009.3
20260831142523 79 0 1.0 4.0 0.00 0.00 0.00 86 1009.4
20260831142023 79 0 1.0 6.0 0.00 0.00 0.00 86 1009.3
20260831141545 78 266 1.0 6.0 0.00 0.00 0.00 86 1009.2
20260831141023 78 251 2.0 6.0 0.00 0.00 0.00 88 1009.3
20260831140523 77 263 2.0 6.0 0.00 0.00 0.00 88 1009.3
20260831140042 77 210 1.0 6.0 0.00 0.00 0.00 89 1009.1
20260831135520 76 0 1.0 6.0 0.00 0.00 0.00 91 1009.2
20260831135023 76 195 1.0 6.0 0.00 0.00 0.00 92 1009.0
20260831134542 75 0 0.0 6.0 0.00 0.00 0.00 92 1008.9
20260831134017 74 0 0.0 4.0 0.00 0.00 0.00 93 1008.8
20260831133525 74 0 1.0 4.0 0.00 0.00 0.00 93 1008.9
20260831133042 73 242 1.0 4.0 0.00 0.00 0.00 93 1008.8
20260831132524 73 0 1.0 6.0 0.00 0.00 0.00 93 1008.7
20260831132024 72 242 2.0 6.0 0.00 0.00 0.00 93 1008.8
20260831131546 72 0 0.0 5.0 0.00 0.00 0.00 93 1008.6
20260831131022 72 0 0.0 5.0 0.00 0.00 0.00 93 1008.5
20260831130523 71 209 0.0 5.0 0.00 0.00 0.00 93 1008.6
20260831130040 71 205 2.0 5.0 0.00 0.00 0.00 93 1008.6
20260831125520 71 0 0.0 4.0 0.00 0.00 0.00 93 1008.6
20260831125021 71 222 1.0 4.0 0.00 0.00 0.00 93 1008.7
20260831124546 71 222 2.0 4.0 0.00 0.00 0.00 93 1008.7
20260831124018 70 222 1.0 4.0 0.00 0.00 0.00 93 1008.5
20260831123524 70 222 2.0 4.0 0.00 0.00 0.00 93 1008.5
20260831123040 70 211 1.0 3.0 0.00 0.00 0.00 93 1008.5
20260831122525 70 211 1.0 3.0 0.00 0.00 0.00 92 1008.7
20260831122026 70 0 0.0 3.0 0.00 0.00 0.00 92 1008.5
20260831121547 70 211 0.0 2.0 0.00 0.00 0.00 92 1008.4
20260831121024 70 211 0.0 2.0 0.00 0.00 0.00 92 1008.3
20260831120525 69 211 0.0 2.0 0.00 0.00 0.00 92 1008.1
20260831120052 69 0 0.0 3.0 0.00 0.00 0.00 92 1008.1
20260831115524 69 0 1.0 3.0 0.00 0.00 0.00 92 1008.3
20260831115019 69 0 0.0 3.0 0.00 0.00 0.00 92 1008.1
20260831114542 69 211 0.0 3.0 0.00 0.00 0.00 92 1007.9
20260831114018 69 211 1.0 3.0 0.00 0.00 0.00 91 1007.8
20260831113524 70 211 1.0 2.0 0.00 0.00 0.00 91 1007.8
20260831113045 70 211 1.0 3.0 0.00 0.00 0.00 91 1007.8
20260831112518 70 211 1.0 3.0 0.00 0.00 0.00 91 1007.6
20260831112017 70 0 1.0 2.0 0.00 0.00 0.00 91 1007.6
20260831111536 70 210 1.0 2.0 0.00 0.00 0.00 91 1007.7
20260831111018 70 210 0.0 2.0 0.00 0.00 0.00 91 1007.6
20260831110518 70 210 1.0 2.0 0.00 0.00 0.00 91 1007.6
20260831110040 70 210 0.0 2.0 0.00 0.00 0.00 91 1007.7
20260831105518 70 210 0.0 3.0 0.00 0.00 0.00 91 1007.6
20260831105020 70 0 0.0 3.0 0.00 0.00 0.00 91 1007.4
20260831104542 70 210 1.0 3.0 0.00 0.00 0.00 91 1007.4
20260831104020 70 209 1.0 3.0 0.00 0.00 0.00 91 1007.4
20260831103518 70 209 1.0 3.0 0.00 0.00 0.00 91 1007.4
20260831103047 70 209 1.0 3.0 0.00 0.00 0.00 91 1007.4
20260831102520 71 209 1.0 3.0 0.00 0.00 0.00 90 1007.6
20260831102022 71 209 1.0 3.0 0.00 0.00 0.00 90 1007.5
20260831101543 71 209 1.0 4.0 0.00 0.00 0.00 90 1007.6
20260831101020 71 209 2.0 5.0 0.00 0.00 0.00 90 1007.6
20260831100522 71 203 1.0 5.0 0.00 0.00 0.00 90 1007.5
20260831100041 71 211 1.0 5.0 0.00 0.00 0.00 90 1007.6
20260831095518 71 207 1.0 5.0 0.00 0.00 0.00 90 1007.5
20260831095021 71 209 1.0 5.0 0.00 0.00 0.00 90 1007.6
20260831094552 71 205 2.0 5.0 0.00 0.00 0.00 90 1007.5
20260831094021 71 203 2.0 4.0 0.00 0.00 0.00 90 1007.4
20260831093519 71 223 2.0 4.0 0.00 0.00 0.00 90 1007.4
20260831093039 71 0 1.0 6.0 0.00 0.00 0.00 90 1007.5
20260831092519 72 0 1.0 6.0 0.00 0.00 0.00 90 1007.4
20260831092019 72 229 0.0 4.0 0.00 0.00 0.00 90 1007.6
20260831091547 72 229 1.0 4.0 0.00 0.00 0.00 90 1007.7
20260831091020 72 0 1.0 6.0 0.00 0.00 0.00 90 1007.7
20260831090522 72 205 1.0 6.0 0.00 0.00 0.00 90 1007.7
20260831090041 72 178 0.0 6.0 0.00 0.00 0.00 89 1007.6
20260831085523 72 178 1.0 5.0 0.00 0.00 0.00 89 1007.5
20260831085018 72 0 1.0 5.0 0.00 0.00 0.00 89 1007.4
20260831084544 72 207 0.0 5.0 0.00 0.00 0.00 89 1007.3
20260831084018 72 186 0.0 5.0 0.00 0.00 0.00 89 1007.5
20260831083520 72 0 1.0 5.0 0.00 0.00 0.00 89 1007.4
20260831083044 72 0 0.0 5.0 0.00 0.00 0.00 89 1007.3
20260831082517 72 195 2.0 5.0 0.00 0.00 0.00 89 1007.3
20260831082019 72 0 0.0 4.0 0.00 0.00 0.00 89 1007.4
20260831081542 72 204 1.0 6.0 0.00 0.00 0.00 89 1007.4
20260831081020 72 0 1.0 6.0 0.00 0.00 0.00 89 1007.4
20260831080520 72 170 1.0 4.0 0.00 0.00 0.00 89 1007.3
20260831080042 72 192 1.0 4.0 0.00 0.00 0.00 89 1007.4
20260831075519 72 0 0.0 7.0 0.00 0.00 0.00 88 1007.3
20260831075018 72 0 0.0 9.0 0.00 0.00 0.00 88 1007.4
20260831074542 72 215 2.0 9.0 0.00 0.00 0.00 88 1007.4
20260831074019 72 157 3.0 8.0 0.00 0.00 0.00 88 1007.4
20260831073520 72 181 2.0 8.0 0.00 0.00 0.00 88 1007.3
20260831073040 72 188 2.0 6.0 0.00 0.00 0.00 88 1007.4
20260831072521 72 186 2.0 7.0 0.00 0.00 0.00 88 1007.4
20260831072022 72 175 2.0 8.0 0.00 0.00 0.00 88 1007.5
20260831071544 72 176 2.0 8.0 0.00 0.00 0.00 88 1007.6
20260831071020 72 205 2.0 8.0 0.00 0.00 0.00 88 1007.6
20260831070524 72 160 1.0 6.0 0.00 0.00 0.00 88 1007.7
20260831070040 72 142 2.0 6.0 0.00 0.00 0.00 87 1007.8
20260831065520 72 220 3.0 8.0 0.00 0.00 0.00 87 1007.9
20260831065018 72 195 3.0 9.0 0.00 0.00 0.00 87 1007.9
20260831064539 72 148 3.0 9.0 0.00 0.00 0.00 87 1008.0
20260831064023 73 195 2.0 7.0 0.00 0.00 0.00 87 1008.0
20260831063521 73 184 2.0 7.0 0.00 0.00 0.00 87 1008.0
20260831063042 73 164 2.0 7.0 0.00 0.00 0.00 86 1008.0
20260831062521 73 170 1.0 7.0 0.00 0.00 0.00 86 1008.1
20260831062024 73 215 1.0 8.0 0.00 0.00 0.00 86 1008.2
20260831061538 73 170 2.0 8.0 0.00 0.00 0.00 86 1008.1
20260831061019 73 159 2.0 5.0 0.00 0.00 0.00 86 1008.3
20260831060517 73 172 2.0 6.0 0.00 0.00 0.00 86 1008.3
20260831060044 73 187 2.0 7.0 0.00 0.00 0.00 86 1008.4
20260831055519 73 178 2.0 7.0 0.00 0.00 0.00 85 1008.5
20260831055019 73 181 2.0 6.0 0.00 0.00 0.00 85 1008.6
20260831054540 73 164 1.0 5.0 0.00 0.00 0.00 85 1008.5
20260831054028 73 180 0.0 5.0 0.00 0.00 0.00 85 1008.6
20260831053521 73 171 2.0 6.0 0.00 0.00 0.00 85 1008.6
20260831053041 73 173 2.0 6.0 0.00 0.00 0.00 85 1008.8
20260831052521 73 182 2.0 7.0 0.00 0.00 0.00 85 1008.8
20260831052019 74 181 2.0 7.0 0.00 0.00 0.00 84 1008.8
20260831051552 74 168 2.0 7.0 0.00 0.00 0.00 84 1008.8
20260831051018 74 174 2.0 6.0 0.00 0.00 0.00 84 1008.8
20260831050520 74 145 1.0 7.0 0.00 0.00 0.00 83 1009.0
20260831050042 74 172 0.0 7.0 0.00 0.00 0.00 83 1008.9
20260831045520 74 165 3.0 7.0 0.00 0.00 0.00 83 1009.0
20260831045020 74 178 1.0 5.0 0.00 0.00 0.00 83 1009.0
20260831044538 74 0 3.0 9.0 0.00 0.00 0.00 83 1008.9
20260831044019 74 172 3.0 9.0 0.00 0.00 0.00 82 1009.1
20260831043520 74 176 3.0 7.0 0.00 0.00 0.00 82 1009.1
20260831043042 75 192 2.0 6.0 0.00 0.00 0.00 82 1009.1
20260831042522 75 225 1.0 10.0 0.00 0.00 0.00 82 1009.1
20260831042019 75 175 3.0 10.0 0.00 0.00 0.00 82 1009.1
20260831041540 75 210 2.0 11.0 0.00 0.00 0.00 81 1009.0
20260831041018 75 199 4.0 11.0 0.00 0.00 0.00 81 1009.0
20260831040518 75 170 2.0 9.0 0.00 0.00 0.00 81 1009.0
20260831040040 75 0 2.0 7.0 0.00 0.00 0.00 81 1008.9
20260831035524 75 172 2.0 12.0 0.00 0.00 0.00 81 1008.9
20260831035023 75 169 3.0 12.0 0.00 0.00 0.00 80 1009.0
20260831034548 75 168 3.0 11.0 0.00 0.00 0.00 80 1009.1
20260831034019 75 178 3.0 8.0 0.00 0.00 0.00 80 1009.1
20260831033519 76 160 2.0 11.0 0.00 0.00 0.00 80 1009.1
20260831033041 76 207 4.0 11.0 0.00 0.00 0.00 80 1008.9
20260831032518 76 0 1.0 11.0 0.00 0.00 0.00 80 1008.8
20260831032018 76 195 3.0 14.0 0.00 0.00 0.00 79 1008.9
20260831031539 76 184 3.0 14.0 0.00 0.00 0.00 79 1009.1
20260831031019 76 175 3.0 9.0 0.00 0.00 0.00 79 1009.2
20260831030518 76 190 4.0 9.0 0.00 0.00 0.00 79 1009.1
20260831030039 76 174 2.0 9.0 0.00 0.00 0.00 78 1009.1
20260831025519 76 0 0.0 9.0 0.00 0.00 0.00 78 1009.0
20260831025023 77 0 1.0 8.0 0.00 0.00 0.00 78 1009.1
20260831024542 77 190 2.0 9.0 0.00 0.00 0.00 78 1009.0
20260831024020 77 161 1.0 9.0 0.00 0.00 0.00 77 1009.0
20260831023520 77 196 3.0 15.0 0.00 0.00 0.00 77 1008.9
20260831023046 77 183 4.0 16.0 0.00 0.00 0.00 76 1009.0
20260831022520 77 182 4.0 16.0 0.00 0.00 0.00 76 1009.1
20260831022019 78 192 4.0 11.0 0.00 0.00 0.00 76 1009.2
20260831021544 78 178 4.0 11.0 0.00 0.00 0.00 75 1009.2
20260831021023 78 177 4.0 11.0 0.00 0.00 0.00 75 1009.2
20260831020519 78 144 2.0 13.0 0.00 0.00 0.00 75 1009.2
20260831020048 78 168 4.0 14.0 0.00 0.00 0.00 75 1009.2
20260831015520 78 163 7.0 14.0 0.00 0.00 0.00 75 1009.2
20260831015023 78 171 3.0 14.0 0.00 0.00 0.00 75 1009.0
20260831014538 78 183 3.0 14.0 0.00 0.00 0.00 75 1009.0
20260831014024 79 230 4.0 13.0 0.00 0.00 0.00 76 1009.0
20260831013524 79 140 2.0 7.0 0.00 0.00 0.00 76 1008.9
20260831013043 79 162 2.0 7.0 0.00 0.00 0.00 76 1008.8
20260831012527 79 0 1.0 9.0 0.00 0.00 0.00 76 1008.7
20260831012024 79 0 3.0 11.0 0.00 0.00 0.00 76 1008.6
20260831011545 79 226 4.0 11.0 0.00 0.00 0.00 75 1008.6
20260831011018 80 0 2.0 7.0 0.00 0.00 0.00 76 1008.7
20260831010519 80 178 1.0 6.0 0.00 0.00 0.00 77 1008.6
20260831010044 80 153 2.0 6.0 0.00 0.00 0.00 77 1008.6
20260831005521 80 0 1.0 5.0 0.00 0.00 0.00 76 1008.6
20260831005020 80 0 0.0 3.0 0.00 0.00 0.00 76 1008.5
20260831004542 80 0 0.0 3.0 0.00 0.00 0.00 76 1008.5
20260831004028 81 0 0.0 3.0 0.00 0.00 0.00 76 1008.3
20260831003527 81 0 0.0 6.0 0.00 0.00 0.00 76 1008.2
20260831003045 81 0 0.0 6.0 0.00 0.00 0.00 75 1008.1
20260831002519 81 187 1.0 6.0 0.00 0.00 0.00 74 1008.1
20260831002023 81 163 2.0 6.0 0.00 0.00 0.00 74 1008.2
20260831001540 81 186 2.0 7.0 0.00 0.00 0.00 74 1008.2
20260831001023 81 0 0.0 7.0 0.00 0.00 0.00 76 1008.0
20260831000523 81 184 2.0 7.0 0.00 0.00 0.00 75 1008.1
20260831000044 82 188 1.0 6.0 0.00 0.00 0.00 76 1008.2
20260830235519 82 111 0.0 6.0 0.00 0.00 0.00 77 1008.2
20260830235018 82 0 0.0 6.0 0.00 0.00 0.00 78 1008.2
20260830234547 82 0 0.0 4.0 0.00 0.00 0.00 78 1008.2
20260830234021 82 0 1.0 6.0 0.00 0.00 0.00 78 1008.1
20260830233519 82 86 3.0 6.0 0.00 0.00 0.00 78 1008.1
20260830233039 82 81 3.0 6.0 0.00 0.00 0.00 78 1008.0
20260830232525 82 86 3.0 7.0 0.00 0.00 0.00 77 1008.1